Wind_Speed
9 9 9 8 7 6 5 5 4 4 4 3 3 3 3 2 1 2 3 3 3 4 4 4 4 3 3 4 5 6 5 4 4 4 5 7 6 5 6 7 7 7 6 5 4 3 3 2 4 9 13 14 12 11 9 8 7 6 6 7 7 8 8
7 7 8 7 7 7 7 7 6 5 4 2 2 2 3 3 1 1 4 5 4 5 5 7 7 6 5 4 4 4 4 4 3 3 3 6 6 5 6 5 6 7 7 6 6 6 5 3 1 2 6 12 15 18 19 18 17 16 15 15 14 14 13
9 8 8 7 8 8 7 8 7 6 5 3 2 2 3 3 1 1 4 6 6 6 7 7 7 7 6 6 5 5 5 5 6 6 6 6 6 5 6 5 5 6 5 5 6 7 7 6 4 2 4 8 11 16 22 23 22 21 19 18 17 18 18
11 10 10 9 9 8 8 7 7 6 5 4 3 4 4 4 3 3 4 5 5 6 6 6 7 7 7 7 7 8 8 8 9 10 10 10 9 8 6 6 6 6 7 7 8 8 7 6 5 3 4 8 9 12 17 20 21 21 20 19 19 19 18
12 12 12 11 10 9 8 8 7 6 5 5 5 6 6 5 5 4 4 5 5 5 4 5 6 6 7 7 8 10 11 11 11 11 12 12 11 11 10 9 9 10 11 11 10 9 9 8 8 5 4 6 7 7 9 12 16 18 20 20 19 18 17
10 9 9 9 9 9 9 8 7 6 6 7 7 7 7 6 5 4 4 5 5 5 4 5 7 8 7 8 9 11 11 12 11 11 13 13 12 13 13 12 11 11 11 11 9 10 10 9 9 7 4 5 5 6 7 8 10 13 16 18 19 18 17
6 5 4 2 5 8 8 8 7 6 6 7 8 8 7 6 3 2 3 5 5 5 5 7 9 10 9 9 9 10 10 10 10 10 11 11 11 11 11 10 10 10 10 10 8 9 9 9 10 7 5 6 7 7 7 8 11 12 11 13 17 18 18
5 5 5 3 7 10 9 8 6 5 5 7 7 7 5 4 2 1 3 5 6 6 7 8 9 10 9 9 8 8 9 9 9 9 9 9 9 9 8 8 9 9 9 9 9 10 10 10 11 9 7 5 5 6 5 6 11 14 11 9 13 18 18
9 8 9 9 10 12 10 8 5 3 5 6 7 6 5 3 2 2 3 4 5 6 7 7 8 8 7 7 7 8 9 9 8 9 9 8 9 9 9 9 11 12 12 11 11 12 12 12 12 11 9 7 5 3 3 3 5 9 11 10 11 15 17
13 14 14 13 13 14 11 8 5 3 3 5 6 6 5 4 3 2 2 2 3 4 5 5 6 6 6 5 6 7 9 9 8 9 9 9 11 11 11 12 12 14 13 12 13 12 12 12 12 11 12 10 8 4 1 1 1 3 9 11 11 14 16
18 19 16 15 15 13 10 8 6 4 4 4 6 7 7 5 4 3 2 1 2 3 3 3 4 5 5 5 6 7 8 8 8 10 9 10 11 12 12 13 13 14 13 12 12 11 10 10 9 9 10 10 11 8 5 2 1 2 6 9 11 13 15
20 20 16 16 16 13 9 8 7 6 5 5 6 7 8 7 6 5 4 3 1 1 1 2 3 3 4 4 5 6 7 6 7 9 9 9 10 11 12 12 12 12 11 10 10 8 7 7 6 7 8 8 10 10 8 5 2 2 5 7 9 12 13
22 20 18 19 17 14 11 9 7 7 6 6 6 7 8 9 8 7 6 6 4 3 2 2 2 2 3 3 4 5 5 5 5 7 8 8 9 9 10 11 10 10 9 8 8 7 7 7 7 7 8 8 9 9 9 8 5 3 3 5 8 10 12
22 20 21 21 18 15 14 12 10 8 7 7 7 7 8 9 9 8 8 8 7 6 5 4 3 3 3 3 3 4 5 5 4 5 6 7 7 6 7 8 9 8 7 6 7 7 7 8 7 7 7 7 8 8 8 8 7 5 3 3 6 10 11
19 20 23 24 20 18 18 15 12 11 9 8 8 8 9 9 9 9 8 9 9 9 8 7 6 5 5 5 4 4 5 5 5 5 5 5 6 5 4 5 6 6 6 6 6 6 6 6 6 6 6 6 8 9 9 8 6 4 3 3 6 9 10
19 21 26 26 22 19 19 17 14 14 12 10 10 10 9 10 10 10 9 9 10 10 10 9 8 8 7 7 7 6 6 6 5 5 5 5 5 6 5 4 5 5 4 4 4 4 4 4 4 4 5 6 7 8 9 10 8 6 5 4 6 10 12
21 24 27 28 24 20 20 19 17 17 15 13 13 13 12 11 11 11 12 12 11 12 12 12 11 10 10 10 9 9 8 7 7 7 6 6 6 6 6 5 5 5 4 3 3 3 3 2 2 2 4 4 5 7 8 10 10 9 7 6 7 9 12
22 25 28 29 26 23 21 20 19 19 16 14 15 14 15 14 14 14 14 14 14 14 13 13 13 12 11 12 12 13 12 11 9 9 8 8 8 8 8 7 6 6 5 4 3 3 2 1 1 0 1 2 3 5 7 8 10 9 8 8 7 8 11
21 24 27 28 27 24 23 22 21 19 17 15 15 15 16 17 17 17 17 17 17 16 15 14 13 13 13 12 13 15 17 16 14 12 11 11 10 10 10 10 9 9 8 6 5 5 4 3 2 2 1 0 1 3 5 7 8 8 7 7 7 9 11
22 23 25 27 27 25 25 25 22 20 18 16 16 17 17 18 19 19 18 18 18 18 17 16 15 14 14 13 14 15 17 19 18 16 13 13 13 13 13 13 12 12 11 10 8 7 6 5 4 3 2 1 0 2 5 7 7 7 6 6 7 9 11
23 24 26 26 26 26 26 25 23 20 18 17 18 18 17 18 19 19 18 19 21 21 19 19 18 16 15 16 16 16 17 19 21 19 16 15 16 16 16 15 15 16 15 13 11 10 8 7 5 4 4 3 1 2 4 6 6 6 5 6 7 9 10
23 23 23 23 23 24 25 24 22 20 18 17 17 16 16 16 16 17 18 21 21 18 15 16 17 18 19 19 19 19 18 19 21 20 19 18 17 18 18 18 17 17 17 15 14 12 10 9 7 5 5 4 2 2 4 5 5 5 5 7 8 9 11
20 20 19 19 19 21 22 22 21 19 17 16 15 14 15 14 13 15 16 18 17 13 13 15 14 18 23 22 21 21 20 21 21 19 19 18 18 19 20 20 19 18 18 18 17 15 13 11 9 7 6 5 4 3 4 4 4 4 5 7 8 9 11
18 19 17 16 16 17 18 18 19 18 18 17 14 13 14 15 16 17 15 15 15 14 17 19 17 19 21 19 19 19 19 20 19 17 17 17 17 19 20 21 20 19 19 19 18 17 15 12 10 8 6 5 4 4 4 3 4 4 6 7 8 8 10
19 20 19 17 17 17 17 16 16 16 17 16 11 12 16 18 21 21 18 17 18 17 17 18 17 16 14 13 14 16 16 17 17 17 17 16 16 17 18 19 19 18 19 19 19 17 16 14 11 9 7 6 6 5 5 5 5 6 7 8 9 9 10
18 19 19 18 17 18 18 17 16 16 16 13 10 14 19 20 21 22 21 19 18 16 14 13 11 9 8 8 9 10 11 12 12 13 13 14 15 15 16 17 18 18 18 18 18 18 18 16 13 10 10 9 8 6 6 7 7 8 9 9 10 11 10
14 15 16 15 15 15 15 14 12 12 13 11 11 15 18 19 19 18 16 14 12 11 10 8 7 6 5 4 4 4 5 6 7 9 10 12 14 15 15 16 16 17 17 17 18 19 18 15 13 13 12 10 8 7 7 8 9 9 9 10 10 10 10
11 12 12 12 11 11 11 10 9 9 9 9 11 13 15 15 14 11 9 8 7 6 6 5 5 5 5 4 4 3 4 5 6 8 9 11 13 14 15 15 15 15 16 17 18 19 17 15 14 13 11 9 8 8 8 8 8 8 7 7 8 8 9
11 11 10 10 10 9 8 7 8 10 10 10 10 10 10 9 7 7 6 5 4 3 3 3 4 5 5 5 5 5 5 5 6 7 8 10 11 12 12 12 13 13 14 15 18 18 16 14 13 11 10 9 8 7 6 6 6 6 6 6 7 9 10
9 10 10 10 9 9 10 12 13 14 14 14 13 12 11 10 8 6 5 4 2 1 1 2 3 4 4 5 5 6 6 6 6 7 7 7 7 7 8 8 10 11 12 15 17 17 14 12 11 10 10 8 7 5 4 5 5 6 7 8 9 10 10
7 9 10 10 11 13 15 15 14 13 13 13 13 12 11 10 8 6 4 2 1 1 2 2 3 4 5 5 5 6 6 6 5 5 5 4 4 4 4 4 5 7 11 13 14 12 11 10 9 9 8 7 5 4 4 5 6 7 8 9 9 10 10
7 8 10 11 13 14 14 13 12 11 10 9 10 11 9 9 8 6 5 5 5 5 5 5 4 5 5 5 5 5 5 6 5 4 3 3 2 3 4 5 5 7 9 10 9 8 7 7 6 6 6 5 5 4 5 6 7 8 9 10 10 11 12
8 10 12 12 12 12 11 11 10 9 7 7 9 9 8 6 5 5 6 7 9 9 8 7 6 6 5 5 5 5 6 6 6 5 5 5 5 6 8 8 8 7 8 8 7 6 6 5 4 4 4 4 4 4 5 6 7 8 9 10 12 13 14
9 11 13 13 13 11 10 10 8 7 7 8 8 8 7 5 3 3 4 6 7 8 8 7 5 4 4 3 4 5 6 7 7 7 8 9 8 9 10 10 10 9 8 7 6 5 4 3 2 2 2 2 3 3 4 6 7 8 10 11 12 13 14
12 11 11 12 12 12 10 9 7 6 7 7 7 7 5 4 3 2 2 4 5 5 6 6 5 3 2 3 4 5 6 7 8 9 10 11 11 11 12 11 11 9 7 6 5 3 2 2 1 1 2 2 3 4 5 6 8 9 11 12 14 15 16
15 13 12 11 11 10 9 9 8 7 6 6 5 5 4 3 2 0 2 3 4 4 4 5 4 3 1 3 5 6 6 8 9 10 10 11 13 13 12 11 10 8 6 5 3 3 2 1 1 0 1 2 3 4 6 7 9 10 12 13 15 16 17
17 15 12 11 10 10 9 8 8 7 5 4 4 4 3 3 3 3 3 3 4 4 3 3 3 2 1 3 5 6 7 8 9 10 10 10 12 13 12 10 9 7 6 5 4 3 3 2 1 1 1 2 4 5 7 8 10 11 13 14 16 17 19
Wind_Direction
167 164 165 162 157 155 145 136 124 114 124 141 145 148 158 155 280 240 166 156 145 118 103 105 108 120 150 176 183 186 195 196 179 182 193 175 154 130 117 109 104 107 107 110 111 112 124 109 79 83 82 78 74 68 64 58 57 57 55 55 46 28 10
173 175 173 169 159 156 150 143 143 141 135 135 151 165 163 159 240 220 171 169 146 122 113 107 103 100 103 121 148 163 165 155 136 115 152 165 160 160 150 118 100 106 98 93 95 88 92 104 100 76 78 76 70 69 75 78 76 75 75 74 69 61 55
179 186 184 177 165 161 155 149 147 145 146 149 161 175 172 165 187 169 166 170 154 141 138 125 115 111 108 112 116 120 121 118 114 104 108 132 138 148 161 148 119 109 100 90 86 82 81 85 97 96 72 79 77 72 76 78 76 75 74 73 71 68 66
183 188 188 181 173 172 166 157 153 148 149 155 160 169 170 165 160 149 157 167 158 146 141 128 119 115 113 113 107 105 106 103 104 105 105 114 122 129 144 146 121 101 98 97 88 85 87 89 100 98 79 95 100 84 76 72 69 67 64 63 63 62 60
187 188 187 181 177 179 178 169 161 155 152 155 155 157 158 156 154 157 168 177 169 160 151 132 123 121 118 118 112 105 102 100 102 104 104 108 113 117 119 115 105 95 89 88 86 86 89 100 112 108 87 99 104 92 86 78 66 60 56 54 55 55 53
185 188 187 183 184 186 184 179 170 162 161 157 154 153 152 154 157 169 186 187 182 177 167 144 127 122 122 122 118 110 103 100 101 102 105 108 109 110 110 106 99 92 83 78 79 83 87 98 108 107 89 84 94 93 88 82 72 62 54 49 46 46 45
189 207 189 198 235 215 193 187 179 167 168 164 160 159 154 153 155 165 178 172 169 164 150 140 131 127 129 130 124 116 110 107 106 105 105 107 106 104 106 105 97 90 86 83 81 83 88 92 95 106 109 83 77 82 78 73 69 62 52 43 39 38 38
218 224 168 168 252 238 213 202 193 170 170 171 170 174 169 163 158 143 151 142 135 131 123 125 131 134 138 137 132 124 117 115 114 110 106 104 105 104 103 104 103 100 98 97 93 87 86 85 84 96 123 120 81 61 59 70 66 55 47 39 34 32 31
221 222 190 192 231 234 224 220 213 184 173 176 180 187 189 192 194 155 146 130 116 112 110 112 118 131 140 140 137 130 122 123 121 113 111 109 108 108 106 107 108 108 106 104 102 94 88 87 83 82 93 116 123 92 37 50 61 50 40 35 33 29 25
208 214 210 219 229 224 223 227 224 209 190 188 192 196 200 206 204 181 139 112 103 96 99 104 105 115 127 130 132 128 125 128 125 117 115 111 109 108 108 107 106 106 107 107 103 98 94 90 88 83 77 80 95 115 130 38 45 54 36 29 28 24 18
209 214 220 231 228 219 225 235 233 227 215 210 206 204 206 208 206 202 197 136 97 87 86 100 108 111 118 124 129 129 130 134 131 126 124 114 109 111 111 110 108 108 110 109 105 101 99 94 90 88 80 74 77 86 108 121 80 67 46 29 23 17 11
212 217 223 226 219 214 220 228 233 234 229 230 223 214 210 208 209 212 216 223 204 126 97 102 118 120 115 118 125 128 131 138 135 130 129 120 113 116 119 117 118 119 118 116 111 106 103 101 100 97 90 85 83 81 89 104 103 63 50 31 19 14 11
212 218 224 220 214 214 211 210 221 230 232 238 235 225 218 213 213 219 224 228 228 219 206 188 168 158 143 127 127 129 130 136 136 130 129 125 118 117 121 123 124 126 128 126 117 111 108 107 109 109 102 94 90 86 85 93 106 112 76 30 11 13 15
210 216 219 214 212 215 209 203 207 212 219 234 240 238 230 222 218 220 226 230 232 230 222 218 217 208 200 186 165 154 149 150 150 144 141 137 132 124 118 121 123 123 131 136 125 117 114 112 113 109 102 91 85 80 74 83 104 124 109 38 17 19 18
214 218 215 211 212 216 211 203 201 205 210 221 236 243 240 233 228 227 229 233 236 238 234 229 230 231 228 222 213 201 185 178 178 175 169 163 160 158 146 134 131 125 128 136 133 127 122 119 118 107 91 74 67 63 54 57 80 108 100 65 36 30 26
224 220 214 210 212 217 215 206 203 211 214 218 230 241 243 240 239 240 241 242 242 244 242 239 240 243 242 239 234 230 223 215 209 203 196 192 188 190 191 180 164 150 138 134 132 129 129 123 112 93 81 61 50 49 40 35 42 58 62 53 38 32 30
226 220 214 211 212 217 216 208 207 214 218 222 229 239 246 247 248 249 249 250 251 250 247 244 247 250 253 256 254 251 246 239 234 228 221 220 219 218 218 210 200 189 176 166 148 136 139 129 99 72 67 54 40 36 28 23 27 32 37 39 37 30 25
223 219 215 212 214 217 215 213 213 216 219 223 229 239 246 249 253 255 255 255 254 253 250 247 248 251 256 263 267 270 266 259 254 249 243 240 239 238 238 234 225 218 212 211 202 188 192 194 177 99 56 51 40 29 22 18 19 20 22 27 28 22 16
223 222 218 216 218 219 217 217 220 222 223 225 228 235 242 247 250 252 255 257 256 255 255 254 255 255 257 261 265 269 270 267 263 260 257 256 253 252 251 246 241 237 234 233 228 216 212 215 213 213 196 79 40 28 23 19 17 14 14 14 11 8 6
227 226 222 220 221 221 219 219 224 231 230 228 231 234 238 244 247 249 253 256 257 258 256 257 260 258 259 261 261 262 266 268 266 264 264 265 262 260 258 253 249 246 245 248 246 239 230 218 212 219 227 228 348 24 20 15 11 8 7 5 358 354 357
229 228 225 223 221 220 219 219 225 232 232 232 235 236 240 245 248 251 256 260 262 264 263 262 263 265 268 268 266 266 268 269 266 264 266 267 266 264 261 258 256 252 251 253 253 251 249 240 225 219 226 237 261 359 9 6 359 354 352 352 349 346 347
227 227 226 224 221 219 219 221 225 230 234 237 238 238 242 247 253 257 261 264 264 267 277 280 278 278 277 273 273 275 275 269 263 263 265 266 268 270 266 263 264 262 259 258 254 252 253 252 246 241 241 240 247 312 345 346 340 336 333 334 336 335 336
224 224 223 222 222 223 223 225 229 232 236 239 239 240 240 246 258 262 262 264 263 272 288 285 277 275 275 275 278 279 277 270 264 264 266 266 270 275 273 271 269 264 259 254 251 248 245 242 242 250 255 250 253 294 321 331 328 319 313 315 319 322 325
227 224 220 216 218 222 224 226 230 234 237 235 236 242 245 251 261 261 260 260 259 267 273 264 256 263 270 275 280 279 275 272 270 272 272 272 276 278 279 279 274 263 253 248 246 244 238 232 234 240 245 243 250 277 300 312 307 295 292 294 298 304 308
233 231 228 226 226 226 226 226 228 235 239 233 234 252 257 258 259 256 256 257 255 257 261 257 255 261 267 273 278 277 273 272 272 273 272 273 275 275 278 282 280 272 261 252 246 239 229 223 226 230 230 230 238 256 278 288 285 280 279 280 285 290 292
236 238 238 237 234 230 230 232 233 241 245 239 238 250 251 252 255 254 254 257 257 257 257 255 254 255 258 266 271 270 269 269 271 272 272 272 273 273 277 280 281 280 272 259 246 233 221 217 219 221 222 228 237 253 272 280 279 277 276 276 281 286 290
244 248 249 244 236 231 233 237 238 243 246 238 231 234 234 238 247 250 249 249 249 248 244 237 234 233 233 241 251 263 274 277 277 274 271 270 271 272 274 275 277 278 274 262 242 222 213 214 218 219 220 225 236 252 263 269 271 273 274 277 281 286 294
249 253 256 251 243 238 241 243 234 225 224 218 215 218 219 224 230 228 222 223 223 220 218 218 223 226 223 226 240 265 285 287 286 281 272 266 266 267 270 273 274 273 269 256 234 216 210 214 215 215 218 227 241 250 255 261 267 271 275 279 284 292 300
250 249 250 250 247 241 233 216 189 175 168 165 168 176 179 180 176 171 173 183 184 187 206 222 227 229 230 238 251 263 274 286 293 290 279 270 266 265 269 273 273 270 262 243 222 209 209 212 211 214 224 231 238 244 251 261 268 278 288 292 298 303 303
246 238 238 237 228 205 178 159 149 144 141 139 140 140 138 134 129 131 135 133 133 152 233 251 252 253 253 257 265 269 271 278 285 289 289 282 273 267 265 267 268 262 244 222 209 203 206 211 217 225 228 226 230 239 253 271 284 296 305 309 311 312 311
252 231 227 215 189 170 160 153 150 148 143 140 140 138 135 130 124 117 105 82 40 346 321 303 291 286 281 279 279 276 274 274 272 279 289 291 285 271 251 239 240 234 216 202 198 201 209 217 224 223 221 220 227 242 258 279 295 303 308 311 313 313 314
255 216 206 194 179 171 168 165 161 157 151 146 145 142 135 128 118 102 74 42 20 1 342 327 315 303 295 289 281 273 270 266 257 251 255 250 235 210 187 173 176 192 195 191 192 196 198 204 209 207 215 227 234 250 271 285 296 303 307 311 313 314 315
250 213 201 196 190 186 181 174 167 162 156 152 150 145 137 129 114 85 53 30 16 5 354 341 324 312 307 298 280 265 258 253 240 222 209 200 187 175 169 164 163 171 179 179 177 176 175 183 197 203 219 240 250 266 285 298 306 311 315 316 317 318 317
261 231 214 207 201 193 183 176 173 170 163 158 158 157 152 139 119 83 43 20 10 5 359 351 335 315 303 285 263 251 249 247 236 212 192 184 178 171 167 165 162 164 170 170 167 170 174 182 201 225 247 275 287 295 305 313 317 318 319 319 318 316 314
261 240 220 206 196 191 189 188 189 188 179 172 169 168 164 152 133 104 35 2 357 358 358 358 352 324 270 236 228 229 234 237 231 215 196 181 173 166 164 162 158 157 163 165 164 170 179 190 236 282 304 308 312 316 317 317 318 318 318 317 316 314 313
261 246 229 213 199 194 192 189 187 186 186 184 179 173 168 164 161 187 319 319 323 331 343 351 352 337 265 206 202 210 220 225 224 218 205 187 174 166 162 159 153 150 152 152 151 152 153 168 212 273 325 322 324 322 319 319 318 318 318 318 317 316 316
261 253 240 225 211 202 195 187 178 171 168 167 167 170 181 199 226 257 274 275 280 291 305 321 325 312 259 198 187 192 204 211 210 207 198 183 172 166 161 157 152 149 148 143 138 137 133 128 116 85 28 340 332 326 324 325 324 323 324 323 321 321 320
Height
816 816 817 817 818 819 819 820 821 822 823 824 825 827 827 828 828 828 828 828 828 829 828 828 828 829 829 830 831 831 832 832 832 833 835 836 836 837 838 838 839 839 840 841 842 843 844 847 849 849 850 850 850 850 850 850 850 850 850 851 851 851 850
817 818 818 818 819 820 821 822 822 823 824 825 826 827 828 829 829 829 829 829 830 830 830 830 829 829 830 830 831 831 831 832 832 833 833 834 836 837 838 839 839 840 840 841 842 842 843 846 849 850 850 850 850 851 851 851 851 851 851 851 851 851 851
818 818 819 820 820 821 822 823 824 825 825 826 827 828 828 829 829 830 830 830 831 831 831 831 831 831 831 831 831 831 831 832 832 832 833 834 836 837 839 839 840 840 841 841 842 843 844 845 848 850 851 851 852 854 853 853 853 853 853 853 852 852 852
817 819 820 820 821 822 823 824 825 826 826 827 828 828 829 830 830 831 831 831 831 831 831 831 831 831 832 832 832 832 832 833 833 833 834 835 836 837 839 840 840 841 841 842 843 844 845 846 848 850 851 852 853 854 855 854 854 854 854 854 853 854 853
817 819 820 822 823 824 825 826 826 826 827 827 828 829 830 831 831 832 832 832 832 832 832 831 832 832 832 833 833 833 834 834 834 835 835 836 837 837 839 840 841 841 842 843 844 844 845 846 848 850 851 852 853 854 855 855 855 855 855 855 855 855 854
817 819 821 823 825 826 827 827 827 828 828 828 829 830 831 832 832 833 832 833 833 833 832 832 832 832 833 834 834 834 835 835 836 836 837 837 838 838 839 840 841 842 843 844 845 845 846 847 847 849 851 852 853 854 855 856 856 856 856 856 856 856 855
819 820 822 824 826 827 828 829 829 828 829 829 830 830 831 832 833 833 833 833 833 833 833 832 832 833 834 835 835 835 835 836 837 837 838 838 839 839 840 840 841 842 843 844 845 846 846 847 847 849 851 852 853 854 855 856 856 857 857 857 857 856 855
819 820 821 823 826 827 829 830 829 829 829 830 830 831 832 832 833 833 834 834 834 834 833 833 833 834 835 835 836 836 836 837 838 838 839 840 840 841 841 841 842 842 844 844 846 846 847 848 848 849 850 851 854 855 856 857 857 857 858 858 857 856 855
818 820 821 822 824 826 829 829 829 829 829 830 831 831 832 832 833 834 834 835 835 835 835 834 834 835 835 836 836 837 837 838 839 839 840 841 841 842 842 843 843 843 844 845 846 847 848 848 849 849 850 850 852 855 857 857 857 858 858 858 857 857 856
816 818 820 822 823 825 828 828 829 829 829 831 831 832 833 833 834 835 835 836 836 836 836 836 836 836 837 837 837 838 838 839 840 840 841 842 842 843 844 844 845 845 846 846 847 848 849 849 850 850 851 851 851 853 855 857 858 859 859 858 857 857 856
814 816 819 822 824 825 827 827 828 829 829 830 831 832 834 834 835 836 836 837 837 838 838 838 838 839 839 839 839 839 840 840 841 841 842 843 843 844 845 845 846 846 847 848 848 849 850 851 851 851 852 852 852 853 854 857 859 859 859 858 858 857 857
814 816 819 821 823 824 825 826 827 828 829 830 831 832 834 834 835 836 837 838 839 839 839 840 840 841 841 841 841 842 842 843 843 843 844 845 845 845 846 846 847 847 848 849 849 850 851 851 852 852 853 853 853 854 854 856 858 859 859 859 858 858 857
813 816 818 820 822 822 823 824 826 827 828 829 830 832 833 834 835 836 837 838 839 840 840 841 841 842 842 843 843 844 844 845 845 846 846 847 847 847 848 848 848 848 849 850 850 851 851 852 852 853 853 854 854 854 855 855 857 858 859 858 858 857 856
812 815 817 818 820 821 822 823 824 826 827 828 830 831 833 834 835 836 836 837 838 839 840 841 842 843 843 844 845 845 846 846 847 847 848 848 849 849 850 850 850 850 850 850 850 851 851 852 852 853 853 854 854 854 855 855 856 857 858 858 857 856 856
812 814 816 817 819 819 820 821 823 824 826 827 829 830 832 833 834 835 836 836 838 838 840 841 842 843 844 844 845 846 846 847 847 848 848 849 850 850 851 851 851 851 851 851 851 851 851 852 852 853 853 853 854 854 854 855 855 856 857 857 856 856 855
811 812 814 815 817 818 819 820 822 823 825 827 829 830 831 832 833 834 836 836 837 838 839 840 841 842 843 844 845 845 846 847 847 848 849 849 850 850 851 851 851 851 851 851 851 851 852 852 852 853 853 853 853 854 854 855 855 856 856 856 856 855 854
810 811 812 814 815 817 818 820 821 822 824 826 828 829 830 832 833 834 835 836 837 838 839 840 841 842 843 844 845 845 845 846 846 847 848 848 849 850 851 851 851 851 851 851 851 851 852 852 852 852 853 853 853 853 854 854 854 855 855 856 855 855 854
809 810 811 813 814 816 818 819 821 822 824 825 827 828 830 831 832 833 835 836 837 838 838 839 840 841 842 844 845 846 846 846 846 846 846 847 848 849 850 850 851 850 850 850 850 851 851 852 852 852 852 853 853 853 853 854 854 854 854 854 855 854 854
808 810 811 812 814 816 818 819 820 821 822 824 825 826 828 829 831 832 834 835 836 837 838 838 839 840 840 841 842 844 846 846 846 845 846 846 847 847 848 849 850 850 849 849 849 850 850 850 851 852 852 852 852 853 853 853 853 853 853 853 853 853 853
808 809 811 812 814 816 817 818 819 820 821 822 823 824 826 827 829 830 832 834 835 836 837 838 838 839 838 838 839 841 843 845 845 845 845 845 845 846 846 847 848 848 848 848 849 849 849 849 850 851 851 851 852 852 852 852 853 853 853 853 853 852 852
807 808 810 812 814 815 816 817 818 818 819 820 821 823 824 826 827 829 831 832 833 834 835 836 837 838 838 838 838 839 841 843 844 844 843 843 843 844 845 845 846 846 847 847 848 848 849 849 849 849 850 850 851 851 851 852 852 852 852 852 852 852 852
806 808 809 811 813 814 814 815 817 817 818 819 820 821 823 824 825 826 828 830 831 833 835 836 837 838 837 837 837 837 839 841 842 842 841 841 841 842 842 843 844 845 846 847 847 848 848 848 848 849 849 850 850 851 851 851 851 852 852 852 852 852 851
806 807 809 810 812 812 813 815 816 816 817 818 818 820 821 822 823 824 826 828 830 832 834 835 835 836 836 836 836 836 837 838 839 839 839 839 839 839 839 840 842 843 844 845 846 846 847 847 848 848 848 849 850 850 850 851 851 851 852 852 852 852 851
805 806 808 809 810 811 812 814 814 815 816 817 818 818 819 820 821 821 824 828 829 830 831 832 833 834 834 834 835 835 835 836 836 836 836 836 837 837 837 837 838 840 841 842 843 844 845 846 847 847 848 848 849 849 849 850 851 851 851 851 851 851 851
805 806 807 809 809 810 811 812 813 814 815 816 818 819 818 818 819 820 823 826 828 828 828 829 830 831 832 832 833 833 833 833 833 833 833 834 834 834 835 835 835 836 838 839 840 842 843 845 845 846 847 847 848 848 848 849 849 850 850 850 850 850 850
805 805 807 808 808 809 810 811 812 813 814 815 817 817 817 817 818 820 822 824 825 825 826 827 828 829 829 830 830 831 831 831 831 831 831 831 832 832 833 833 833 834 835 836 838 839 841 843 844 845 845 846 846 846 847 848 848 849 849 849 849 849 848
803 804 805 806 807 808 808 809 810 811 812 813 814 815 816 817 819 820 821 822 823 824 824 825 826 827 827 828 828 829 829 829 829 829 829 830 830 830 830 831 831 832 833 834 835 837 839 841 842 843 844 844 845 846 846 847 847 848 848 848 848 847 847
802 803 804 805 806 806 806 807 808 809 810 811 813 814 816 818 819 820 821 821 822 822 823 824 825 825 826 826 827 827 828 828 828 828 828 828 828 828 828 829 829 830 831 832 834 836 838 839 840 842 843 844 844 845 845 846 846 846 847 847 846 846 846
801 802 803 804 805 805 806 806 807 808 809 811 812 814 815 817 818 819 820 820 821 822 822 822 823 824 824 825 825 826 826 826 827 827 827 827 827 827 827 827 828 829 830 832 834 835 837 838 839 841 842 843 843 843 844 845 845 846 845 845 845 845 845
801 802 803 803 804 805 806 806 807 808 809 810 812 813 815 816 817 818 819 819 820 821 821 821 822 822 823 823 824 825 825 825 826 826 825 825 826 826 826 827 827 828 830 831 833 835 836 837 839 840 841 842 842 843 843 844 844 844 844 844 843 843 843
801 801 802 803 804 805 806 807 808 809 810 811 812 813 814 815 816 817 818 818 819 820 820 820 821 821 821 822 822 823 823 824 824 824 825 825 825 825 826 827 828 829 830 832 833 835 836 837 838 839 840 841 841 842 843 843 843 843 843 842 842 842 842
802 802 803 804 805 806 807 807 808 809 809 810 811 812 813 814 815 816 817 817 818 818 819 819 819 820 820 821 821 822 822 823 823 823 824 825 825 826 827 828 829 830 831 833 834 835 836 837 838 839 840 840 841 841 842 842 842 842 841 841 841 841 841
803 803 803 804 805 806 806 807 808 808 809 810 811 812 812 813 813 814 815 816 817 817 817 818 818 819 819 819 820 820 821 822 822 823 824 825 826 827 828 829 830 831 832 833 834 835 836 837 838 839 839 840 840 840 841 841 840 840 840 840 839 839 839
804 803 803 804 804 804 805 806 807 808 808 809 810 811 812 812 812 813 814 815 816 817 817 818 818 818 818 818 819 820 820 821 822 823 824 825 826 827 828 829 830 831 832 833 834 835 836 837 837 838 838 839 839 839 840 839 839 839 839 838 838 837 837
803 803 802 802 802 802 803 804 805 806 807 808 809 810 811 811 811 812 813 814 815 816 816 817 817 817 817 818 818 819 820 821 822 823 824 826 827 828 829 830 831 832 833 834 834 835 836 836 837 837 837 838 838 838 838 838 838 838 837 837 836 836 835
801 801 801 801 800 800 801 801 802 804 805 806 807 808 809 809 810 811 812 813 813 814 815 815 816 816 816 817 818 819 820 821 822 824 825 826 827 828 829 830 832 833 833 834 835 835 836 836 836 836 837 837 837 838 838 837 837 837 836 836 835 834 833
799 799 799 799 799 798 799 800 800 801 803 804 805 806 807 808 808 809 810 811 812 812 813 814 814 815 815 816 817 818 819 821 822 824 825 826 827 828 829 831 832 833 833 834 835 835 836 836 836 836 837 837 837 837 837 837 836 836 835 834 833 832 831